Tracking 29493 objects as of 8-Sep-2024
HD Live streaming from Space Station
objects crossing your sky now

FENGYUN 1C DEB

Track FENGYUN 1C DEB now!
10-day predictions


NORAD ID: 37925
Int'l Code: 1999-025EPA
Perigee: 633.7 km
Apogee: 738.6 km
Inclination: 99.1 °
Period: 98.3 minutes
Semi major axis: 7057 km
RCS: 0.0001 m2 (small)
Launch date: May 10, 1999
Source: People's Republic of China (PRC)
Launch site: Taiyaun Space Center, China (TSC)

Note: This is SATELLITE DEBRIS
Your satellite tracking list
Your tracking list is empty




NASA's NSSDC Master Catalog

Two Line Element Set (TLE):
1 37925U 99025EPA 24247.71902345  .00020868  00000-0  37907-2 0  9993
2 37925  99.1156  54.2055 0074307 345.7706  14.1399 14.64405503588340
Source of the keplerian elements: AFSPC